Broken Bow, NE

4:41 PM CDT on September 25, 2017 (GMT -0500)
Broken Bow Municipal

Weather History for KBBW - September, 2013

Change the Weather History Date:

Friday, September 6, 2013

  Actual Average Record
Temperature  
Mean Temperature 81 °F 66 °F  
Max Temperature 98 °F 80 °F 101 °F (1984)
Min Temperature 64 °F 53 °F 25 °F (1956)
Degree Days  
Heating Degree Days 0 2  
Month to date heating degree days 0 11  
Cooling Degree Days 16 4  
Month to date cooling degree days 50 25  
Year to date cooling degree days 736 721  
Growing Degree Days 31 (Base 50)    
Moisture  
Dew Point 60 °F    
Average Humidity 58    
Maximum Humidity 93    
Minimum Humidity 22    
Precipitation  
Precipitation 0.00 in 0.07 in 1.56 in (1972)
Sea Level Pressure  
Sea Level Pressure 29.91 in    
Wind  
Wind Speed 7 mph (South)    
Max Wind Speed 16 mph    
Max Gust Speed 24 mph    
Visibility 10 miles    
Events      
T = Trace of Precipitation, MM = Missing Value Source: NWS Daily Summary

Daily Weather History Graph

Daily Weather History Graph

Search for Another Location

Airport or City:

Trip Planner

Search our weather history database for the weather conditions in past years. The results will help you decide how hot, cold, wet, or windy it might be!

Date:

Astronomy

Sep. 06, 2013 Rise Set
Actual Time 7:10 AM CDT 8:02 PM CDT
Civil Twilight 6:41 AM CDT 8:30 PM CDT
Nautical Twilight 6:08 AM CDT 9:04 PM CDT
Astronomical Twilight 5:33 AM CDT 9:38 PM CDT
Moon 8:25 AM CDT (9/6) 8:26 PM CDT (9/6)
Length of Visible Light 13h 48m
Length of Day
12h 52m
New Moon, 2% of the Moon is Illuminated
Sep 6
New Moon
Sep 12
First Quarter
Sep 19
Full
Sep 26
Last Quarter
Oct 4
New

Hourly Weather History & Observations

Time (CDT) Temp. Heat Index Dew Point Humidity Pressure Visibility Wind Dir Wind Speed Gust Speed Precip Events Conditions
12:53 AM 68.0 °F - 64.0 °F 87% 30.02 in 10.0 mi SSE 6.9 mph - N/A   Clear
1:53 AM 69.1 °F - 63.0 °F 81% 30.01 in 10.0 mi SSE 6.9 mph - N/A   Clear
2:53 AM 69.1 °F - 63.0 °F 81% 30.01 in 10.0 mi South 8.1 mph - N/A   Clear
3:53 AM 66.0 °F - 62.1 °F 87% 29.99 in 10.0 mi South 6.9 mph - N/A   Clear
4:53 AM 66.0 °F - 62.1 °F 87% 29.99 in 10.0 mi South 5.8 mph - N/A   Clear
5:53 AM 66.0 °F - 62.1 °F 87% 29.97 in 10.0 mi South 5.8 mph - N/A   Clear
6:53 AM 64.0 °F - 61.0 °F 90% 29.97 in 10.0 mi SE 4.6 mph - N/A   Clear
7:53 AM 64.9 °F - 62.1 °F 90% 29.97 in 8.0 mi South 10.4 mph - N/A   Clear
8:53 AM 69.1 °F - 61.0 °F 75% 29.96 in 10.0 mi South 9.2 mph - N/A   Clear
9:53 AM 75.0 °F - 61.0 °F 62% 29.95 in 10.0 mi SSW 9.2 mph - N/A   Clear
10:53 AM 81.0 °F 81.3 °F 59.0 °F 47% 29.94 in 10.0 mi SSW 8.1 mph - N/A   Clear
11:53 AM 86.0 °F 85.4 °F 59.0 °F 40% 29.93 in 10.0 mi South 6.9 mph - N/A   Clear
12:53 PM 91.0 °F 90.0 °F 57.9 °F 33% 29.90 in 10.0 mi South 11.5 mph - N/A   Clear
1:53 PM 95.0 °F 94.0 °F 57.9 °F 29% 29.88 in 10.0 mi South 10.4 mph - N/A   Clear
2:53 PM 96.1 °F 94.8 °F 57.0 °F 27% 29.87 in 10.0 mi SSW 12.7 mph - N/A   Clear
3:53 PM 97.0 °F 95.3 °F 55.9 °F 25% 29.85 in 10.0 mi SSW 9.2 mph - N/A   Clear
4:53 PM 98.1 °F 96.1 °F 54.0 °F 23% 29.83 in 10.0 mi South 10.4 mph 23.0 mph N/A   Clear
5:53 PM 96.1 °F 94.5 °F 55.9 °F 26% 29.82 in 10.0 mi South 6.9 mph - N/A   Clear
6:53 PM 88.0 °F 88.7 °F 63.0 °F 43% 29.83 in 10.0 mi SE 6.9 mph - N/A   Clear
7:53 PM 79.0 °F - 63.0 °F 58% 29.83 in 10.0 mi ESE 5.8 mph - N/A   Clear
8:53 PM 71.1 °F - 66.9 °F 87% 29.84 in 10.0 mi Calm Calm - N/A   Clear
9:53 PM 69.1 °F - 66.0 °F 90% 29.85 in 10.0 mi Calm Calm - N/A   Clear
10:53 PM 77.0 °F - 57.9 °F 52% 29.84 in 10.0 mi South 3.5 mph - N/A   Clear
11:53 PM 73.9 °F - 55.9 °F 53% 29.85 in 10.0 mi Calm Calm - N/A   Clear